#timestamp,LO_Frequency,Hit,StdDev 
1591779615.8,286047001.2,N
1591779635.7,286047000.0,N
1591779655.5,286047000.2,N
1591779675.4,286047000.6,N
1591779695.2,286047000.5,N
1591779715.0,286047002.3,N
1591779715.9,286047002.3,N
1591779735.8,286047000.9,N
1591779755.6,286046998.7,N
1591779775.5,286047000.9,N
1591779795.3,286046999.0,N
1591779815.1,286046998.6,N
1591779835.9,286046997.2,N
1591779855.7,286046999.2,N
1591779875.5,286046999.6,N
1591779895.4,286046996.8,N
1591779915.2,286046996.8,N
1591779935.1,286046997.8,N
1591779936.0,286046997.8,N
1591779955.8,286046995.6,Y
1591779975.6,286046999.1,P
1591779995.5,286046998.5,P
1591780015.3,286046999.4,N
1591780035.2,286046998.6,Y
1591780055.4,286047002.3,P
1591780075.2,286047000.6,N
1591780095.0,286047001.7,N
1591780095.9,286047001.7,N
1591780115.8,286047001.5,N
1591780135.6,286047004.4,Y
1591780155.5,286046996.5,P
1591780175.3,286046999.2,N
1591780195.1,286046998.9,N
1591780215.9,286047000.5,N
1591780235.7,286046998.4,N
1591780255.5,286046999.6,N
1591780275.4,286047001.0,N
1591780295.2,286046998.1,N
1591780315.1,286047000.0,N
1591780316.0,286047000.0,N
1591780335.8,286046999.9,N
1591780355.6,286046998.4,N
1591780375.5,286047000.3,N
1591780395.3,286046999.8,N
1591780415.2,286047000.0,N
1591780435.9,286046998.1,N
1591780455.7,286047000.4,N
1591780475.6,286046996.7,N
1591780495.4,286046999.8,N
1591780515.2,286046996.9,N
1591780535.1,286046996.6,N
1591780536.0,286046996.6,N
1591780555.8,286046997.4,N
1591780575.7,286046996.8,N
1591780595.5,286046997.5,N
1591780615.3,286046996.7,N
1591780635.2,286046999.2,N
1591780655.0,286046998.9,N
1591780655.9,286046998.9,N
1591780675.8,286046997.9,N
1591780695.6,286046996.0,N
1591780715.4,286046998.0,N
1591780735.3,286046997.7,N
1591780755.1,286046997.6,N
1591780775.8,286046998.0,N
1591780795.7,286046999.6,N
1591780815.5,286046996.7,N
1591780835.4,286046999.5,N
1591780855.2,286046997.7,N
1591780875.0,286047000.8,N
1591780875.9,286047000.8,N
1591780895.8,286046996.7,N
1591780915.6,286046998.6,N
1591780935.5,286047000.0,N
1591780955.3,286047001.2,N
1591780975.1,286046997.3,N
1591780995.9,286046997.2,N
1591781015.7,286046997.5,N
1591781035.6,286046995.3,Y
1591781055.4,286046998.2,P
1591781075.2,286046999.4,P
1591781095.1,286047001.2,N
1591781096.0,286047001.2,N
1591781115.8,286046999.4,N
1591781135.7,286046997.1,N
1591781155.5,286047000.2,N
1591781175.3,286046998.3,N
1591781195.2,286046998.9,N
1591781215.0,286046999.4,N
1591781215.9,286046999.4,N
1591781235.7,286047000.9,N
1591781255.6,286046999.0,N
1591781275.4,286046996.7,N
1591781295.3,286046999.2,N
1591781315.1,286047000.7,N
1591781316.0,286047000.7,N
1591781335.8,286046998.9,N
1591781355.7,286047000.2,N
1591781375.5,286047000.2,N
1591781395.4,286047000.7,N
1591781415.2,286047002.5,N
1591781435.0,286047002.6,N
1591781435.9,286047002.6,N
1591781455.8,286047001.8,N
1591781475.6,286046999.7,N
1591781495.5,286047005.9,Y
1591781515.3,286047003.5,P
1591781535.1,286047003.8,N
1591781555.9,286047004.0,N
1591781575.7,286047005.8,Y
1591781595.6,286047002.0,P
1591781615.4,286047002.4,P
1591781635.2,286047002.3,P
1591781655.1,286047000.4,N
1591781656.0,286047000.4,N
1591781675.8,286047000.3,N
1591781695.7,286046996.5,Y
1591781715.5,286047000.6,P
1591781735.3,286047000.5,N
1591781755.2,286046996.6,P
1591781775.0,286046997.3,N
1591781775.9,286046997.3,N
1591781795.8,286046999.1,N
1591781815.6,286046999.2,N
1591781835.4,286047000.0,N
1591781855.3,286047001.5,N
1591781875.1,286047002.2,N
1591781895.8,286047000.9,N
1591781915.7,286047000.7,N
1591781935.5,286047002.3,N
1591781955.4,286046998.5,N
1591781975.2,286046996.6,N
1591781995.0,286046997.1,N
1591781995.9,286046997.1,N
1591782015.8,286046995.2,N
1591782035.6,286046996.7,N
1591782055.5,286046995.3,N
1591782075.3,286046996.2,N
1591782095.1,286046997.7,N
1591782115.9,286046995.2,N
1591782135.7,286046998.0,N
1591782155.5,286046993.8,N
1591782175.4,286046994.8,N
1591782195.2,286046992.6,Y
1591782215.1,286046992.3,P
1591782216.0,286046992.3,N
1591782235.8,286046991.7,N
1591782255.6,286046994.1,N
1591782275.5,286046993.5,N
1591782295.3,286046998.0,N
1591782315.2,286046995.2,N
1591782335.9,286046995.6,N
1591782355.7,286046995.9,N
1591782375.6,286046994.9,N
1591782395.4,286046997.5,N
1591782415.3,286046996.0,N
1591782435.1,286046998.0,N
1591782436.0,286046998.0,N
1591782455.8,286046995.1,N
1591782475.7,286046995.8,N
1591782495.5,286046994.4,N
1591782515.3,286046991.4,Y
1591782535.2,286046995.5,P
1591782555.0,286046997.9,P
1591782555.9,286046997.9,N
1591782575.8,286046997.6,N
1591782595.6,286046997.4,N
1591782615.4,286046997.6,N
1591782635.3,286046995.4,Y
1591782655.1,286046998.6,P
1591782675.9,286047000.0,N
1591782695.7,286046998.1,N
1591782715.5,286047001.0,N
1591782735.4,286046998.3,N
1591782755.2,286046998.7,N
1591782775.0,286046998.9,N
1591782776.0,286046998.9,N
1591782795.8,286046996.7,Y
1591782815.6,286046998.7,P
1591782835.5,286047000.4,P
1591782855.3,286047001.5,N
1591782875.2,286047004.3,Y
1591782895.9,286047006.0,P
1591782915.7,286047003.1,N
1591782935.6,286047002.1,N
1591782955.4,286046999.7,N
1591782975.2,286047004.4,N
1591782995.1,286046999.7,N
1591782996.0,286046999.7,N
1591783015.8,286047002.1,N
1591783035.7,286047002.5,N
1591783055.5,286046999.7,N
1591783075.3,286046999.8,N
1591783095.2,286047000.0,N
1591783115.0,286047000.1,N
1591783115.9,286047000.1,N
1591783135.8,286047001.9,N
1591783155.6,286047000.1,N
1591783175.4,286047001.2,N
1591783195.3,286047000.9,N
